• MPC Preparation (Info)

  • MPEC 2022-Q91 : 2022 QE3

    The following Minor Planet Electronic Circular may be linked-to from your own Web pages, but must not otherwise be redistributed electronically.

    A form allowing access to any MPEC is at the bottom of this page.


    Read MPEC 2022-Q90 Read MPEC 2022-Q92


    M.P.E.C. 2022-Q91                               Issued 2022 August 23, 11:52 UT
    
         The Minor Planet Electronic Circulars contain information on unusual
             minor planets and routine data on comets.  They are published
        on behalf of Division F of the International Astronomical Union by the
              Minor Planet Center, Smithsonian Astrophysical Observatory,
                              Cambridge, MA 02138, U.S.A.
    
                 Prepared using the Tamkin Foundation Computer Network
    
                                  MPC@CFA.HARVARD.EDU
                URL https://www.minorplanetcenter.net/    ISSN 1523-6714
    
                                    2022 QE3                                 
    
    
    Observations:
         K22Q03E* C2022 08 21.35683422 43 57.364+31 47 15.05         20.25wUEQ091F52
         K22Q03E  C2022 08 21.36717522 44 11.598+31 46 29.02         20.51wUEQ091F52
         K22Q03E  C2022 08 21.37746622 44 25.662+31 45 42.52         20.53wUEQ091F52
         K22Q03E 1C2022 08 21.84196 22 55 12.51 +31 03 29.8          20.6 VXEQ091033
         K22Q03E 1C2022 08 21.84283 22 55 13.59 +31 03 26.0          20.4 VXEQ091033
         K22Q03E 1C2022 08 21.84369 22 55 14.66 +31 03 22.4          20.3 VXEQ091033
         K22Q03E 1C2022 08 21.84474 22 55 15.97 +31 03 17.8          21.1 VXEQ091033
         K22Q03E KC2022 08 21.93897222 57 11.621+30 56 05.17         20.9 GVEQ091J95
         K22Q03E KC2022 08 21.96203422 57 38.532+30 54 22.32         21.1 GVEQ091J95
         K22Q03E 6C2022 08 22.02434022 58 50.482+30 50 51.26         20.2 GVEQ091Z84
         K22Q03E KC2022 08 22.27900823 03 47.34 +30 30 33.2          20.7 VuEQ091H21
         K22Q03E KC2022 08 22.28040723 03 48.75 +30 30 26.7          20.7 VuEQ091H21
         K22Q03E KC2022 08 22.28600123 03 54.41 +30 30 00.6          20.4 VuEQ091H21
         K22Q03E 1C2022 08 22.95917 23 15 26.27 +29 38 56.9          20.2 VXEQ091033
         K22Q03E 1C2022 08 22.96056 23 15 27.45 +29 38 51.5          20.6 VXEQ091033
         K22Q03E 1C2022 08 22.96194 23 15 28.59 +29 38 45.9          20.4 VXEQ091033
         K22Q03E KC2022 08 23.22430623 19 24.68 +29 21 18.8          20.7 VuEQ091H21
         K22Q03E KC2022 08 23.22989923 19 28.95 +29 20 57.3          20.8 VuEQ091H21
         K22Q03E KC2022 08 23.23549123 19 33.21 +29 20 36.1          21.0 VuEQ091H21
         K22Q03E KC2022 08 23.24108323 19 37.47 +29 20 14.3          20.8 VuEQ091H21
         K22Q03E KC2022 08 23.24891523 19 43.42 +29 19 44.1          20.9 VuEQ091H21
    
    Observer details:
    033 Karl Schwarzschild Observatory, Tautenburg.  Observers S. Melnikov, C.
        Hoegner, U. Laux, F. Ludwig, B. Stecklum.  Measurer B. Stecklum.  1.34-m
        f/3 Schmidt + CCD.
    F52 Pan-STARRS 2, Haleakala.  Observers J. Bulger, T. Lowe, A. Schultz, I.
        Smith.  Measurers K. Chambers, S. Chastel, T. de Boer, J. Fairlamb, H.
        Gao, M. Huber, C.-C. Lin, E. Magnier, Y. Ramanjooloo, R. Wainscoat, R.
        Weryk.  1.8-m Ritchey-Chretien + CCD.
    H21 Astronomical Research Observatory, Westfield.  Observer R. Holmes.
        Measurers T. Linder, R. Holmes, L. Horn.  0.76-m f/3.0 astrograph + CCD.
    J95 Great Shefford.  Observer P. Birtwhistle.  0.41-m f/6.3 Schmidt-Cassegrain
        + CCD.
    Z84 Calar Alto-Schmidt.  Observers M. Micheli, R. Kresken.  Measurer R.
        Kresken.  0.8-m f/3 Schmidt + CCD.
    
    Orbital elements:
    2022 QE3                                                 Earth MOID = 0.0069 AU
    Epoch 2022 Aug. 9.0 TT = JDT 2459800.5                  Veres                   
    M   2.38411              (2000.0)            P               Q                  
    n   0.35708665     Peri.  356.51393     +0.58986883     +0.80676395             
    a   1.9676762      Node   309.63045     -0.73977988     +0.52280763             
    e   0.4897754      Incl.    2.56358     -0.32369817     +0.27532544             
    P   2.76           H   26.64          G   0.15           U   8                  
    Residuals in seconds of arc
    220821 F52  0.1+  0.0     220821 J95  0.5-  0.1-    220822 033  0.2+  0.3+
    220821 F52  0.0   0.0     220821 J95  0.0   0.3+    220822 033  0.2-  0.3+
    220821 F52  0.1-  0.0     220822 Z84  0.2+  0.0     220823 H21  0.0   0.1-
    220821 033  0.2+  0.3-    220822 H21  0.1+  0.1+    220823 H21  0.1-  0.2-
    220821 033  0.2+  0.4-    220822 H21  0.0   0.1+    220823 H21  0.2-  0.0
    220821 033  0.3+  0.3-    220822 H21  0.0   0.1-    220823 H21  0.1-  0.2-
    220821 033  0.5+  0.3-    220822 033  0.1+  0.1+    220823 H21  0.1+  0.0
    
    Ephemeris:
    2022 QE3                 a,e,i = 1.97, 0.49, 3                   q = 1.0040
    Date    TT    R. A. (2000) Decl.     Delta      r    Elong.  Phase     V
    2022 07 24    13 21 39.4 -15 30 24   0.1024  1.0102    83.9    90.3    24.9
    ...
    2022 08 08    14 07 34.1 -09 02 13   0.04021 1.0063    77.7   100.0    23.3
    ...
    2022 08 16    17 31 29.1 +22 53 13   0.01386 1.0173   108.8    70.5    19.9
    ...
    2022 08 22    22 58 16.8 +30 53 28   0.02735 1.0311   135.1    43.8    20.6
    2022 08 23    23 15 58.2 +29 37 54   0.03126 1.0339   135.5    43.3    20.9
    2022 08 24    23 29 18.3 +28 32 14   0.03530 1.0368   135.8    42.8    21.1
    ...
    2022 08 30    00 07 55.5 +24 21 44   0.06081 1.0566   139.1    38.7    22.2
    ...
    2022 09 07    00 23 31.7 +21 27 38   0.09663 1.0891   145.7    31.4    23.1
    ...
    2022 09 22    00 28 41.0 +17 51 03   0.1703  1.1652   159.8    17.3    24.0
    
    M. P. C. Staff               (C) Copyright 2022 MPC           M.P.E.C. 2022-Q91
    


    Read MPEC 2022-Q90 Read MPEC 2022-Q92


    MPEC number:

    Enter an MPEC number in one of the following forms:

    • 1997-B01 (the full form)
    • J97B01 (the packed version of the full form)
    • B01 (the abbreviated form)